Other Surface Observations
Issued by NWS Tucson, AZ

Home | Current Version | Previous Version | Text Only | Print | Product List | Glossary On
Versions: 1 2 3 4 5 6 7 8 9 10 11 12 13 14 15 16 17 18 19 20 21 22 23 24 25 26 27 28 29 30 31 32 33 34 35 36 37 38 39 40 41 42 43 44 45 46 47 48 49 50
000
SXUS55 KTWC 261215
OSOTWC

WEATHER ROUNDUP FOR SOUTHEAST ARIZONA
NATIONAL WEATHER SERVICE TUCSON AZ
515 AM MST SUN APR 26 2015

AZZ504>506-514-261315-
LOCATION       SKY/WX    TMP DP  RH WIND       PRES   REMARKS
TUCSON         CLOUDY    52  47  83 VRB5      29.85F
DAVIS-MONTHAN  MOCLDY    51  48  88 W5        29.83S
CHILDRENS PARK N/A       52  51  95 NW4               PIMA CO DEQ
ALVERNON/22ND  N/A      N/A N/A N/A N/A               PIMA CO DEQ
CHERRY/GLENN   N/A      N/A N/A N/A N/A               PIMA CO DEQ
TANGERINE      N/A       51 N/A N/A W5                PIMA CO DEQ
CONTL RANCH    N/A       54  51  91 NW4               PIMA CO DEQ
GRANT/1ST      N/A       52  50  93 NW5               PIMA CO DEQ
CRAYCROFT/22ND N/A      N/A N/A N/A N/A               PIMA CO DEQ
GOLFLINKS/KOLB N/A      N/A N/A N/A N/A               PIMA CO DEQ
AJO/12TH       N/A       52  49  90 W7                PIMA CO DEQ
SAGUARO EAST   N/A      N/A N/A N/A N/A               PIMA CO DEQ
FAIRGROUNDS    N/A       50 N/A N/A NW11              PIMA CO DEQ
SAGUARO        N/A       51  45  81 W7G25             *SABINO CYN
SAN CARLOS     N/A       50  48  94 S3                *SAN CARLOS
GREEN VALLEY   N/A       52  48  86 SW5               PIMA CO DEQ
HORSE CAMP CYN N/A       44  43  97 W11G18            *ARAVAIPA CYN
RINCON MTNS    N/A       30  30  100 W9G23            *NR MANNING CAMP
$$

AZZ509>511-261315-
LOCATION       SKY/WX    TMP DP  RH WIND       PRES   REMARKS
SAFFORD        CLOUDY    48  44  86 N7        29.79S
STRAY HORSE    N/A       31  30  97 W10G18            *
TRAIL CABIN    N/A       34  33  96 W4G15             *N OF GRANVILLE
BLACK HILLS    N/A       47  45  94 S5G18             *N OF FT THOMAS
DRY LAKE       N/A       32  32  99 W5                *NATANES MTNS
NOON CREEK     N/A       44  43  97 N3G11             *PINALENO MTNS
COLUMBINE      N/A       27  24  87 S13G27            *PINALENO MTNS
GUTHRIE        N/A       36  36  100 NW20G40          *SW OF GUTHRIE
$$

AZZ502-503-513-261315-
LOCATION       SKY/WX    TMP DP  RH WIND       PRES   REMARKS
NOGALES        CLOUDY    49  45  86 W6        29.86S
SELLS          N/A       51  47  86 CALM              *
SASABE         N/A       52  46  79 CALM              *ALTAR VLY
HOPKINS        N/A       36  35  98 W14G32            *SANTA RITA MTNS
CARR CYN       N/A       47  40  76 NW5G12            *W OF HEREFORD
$$

AZZ507-508-512-261315-
LOCATION       SKY/WX    TMP DP  RH WIND       PRES   REMARKS
SIERRA VISTA   CLOUDY    46  43  87 W15G23    29.84F THUNDER
DOUGLAS        CLOUDY    55  33  43 SW15      29.81S
EMPIRE MTNS    N/A       45  42  89 NW11G22           *LAS CIENEGAS NCA
MULESHOE RANCH N/A       44  43  95 NW4G11            *PRESERVE
HEADQUARTERS   N/A       48  35  60 W8G19             *CHIRICAHUA MTNS
$$

.............................NOTES.............................
THIS IS AN AUTOMATED COLLECTIVE WITH MINIMAL QUALITY CONTROL.
PIMA CO DEQ SITES HAVE NONSTANDARD WIND SENSOR HEIGHTS.
PIMA CO DEQ SITES DO NOT REPORT WIND GUSTS.
* INDICATES WIND SENSORS LOCATED AT 20 FEET INSTEAD OF 33 FEET.
..............................KEY..............................
SKY/WX - SKY CONDITION/WEATHER
TMP    - TEMPERATURE IN FAHRENHEIT
DP     - DEWPOINT IN FAHRENHEIT
RH     - RELATIVE HUMIDITY IN PERCENT
WIND   - DIRECTION AND SPEED IN MILES PER HOUR (MPH)
VRB    - VARIABLE WIND DIRECTION
PRES   - MEAN SEA LEVEL PRESSURE IN INCHES OF MERCURY
         F - FALLING PRESSURE   R - RISING PRESSURE
         S - STEADY PRESSURE
VSB    - VISIBILITY IN MILES
HX     - HEAT INDEX IN FAHRENHEIT
WCI    - WIND CHILL INDEX IN FAHRENHEIT
N/A    - NOT AVAILABLE
AFB    - AIR FORCE BASE
         DAVIS-MONTHAN IS DAVIS-MONTHAN AIR FORCE BASE
CYN    - CANYON
MTNS   - MOUNTAINS
NCA    - NATIONAL CONSERVATION AREA
NR     - NEAR
VLY    - VALLEY
CONTL  - CONTINENTAL
PIMA CO DEQ - PIMA COUNTY DEPT OF ENVIRONMENTAL QUALITY



USA.gov is the U.S. government's official web portal to all federal, state and local government web resources and services.